{"data":{"norad_id":66603,"intl_designator":"2025-270R","name":"STARLINK-36048","alt_names":[],"object_type":"PAYLOAD","status":"ACTIVE","operator":null,"country":"US","launch_date":"2025-11-22","launch_site_code":"AFETR","launch_vehicle":null,"mission":null,"orbit_class":"UNKNOWN","rcs_meters":null,"size_class":null,"mass_kg":null,"dimensions":null,"purposes":["comms"],"wikipedia_slug":null,"has_3d_model":false,"image_url":null,"decayed_at":null,"tle_current":{"epoch":"2026-05-24T21:31:40.209888Z","epoch_age_seconds":84786,"freshness":"FRESH","line1":"1 66603U 25270R   26144.89699317  .00016382  00000+0  60346-3 0  9997","line2":"2 66603  43.0030 345.5545 0002242 266.9136  93.1459 15.27581300 29269","mean_motion":15.275813,"eccentricity":0.0002242,"inclination_deg":43.003,"raan_deg":345.5545,"arg_perigee_deg":266.9136,"mean_anomaly_deg":93.1459,"bstar":0.00060346,"rev_number":2926,"period_min":94.266668490901,"perigee_km":481.50692632474,"apogee_km":484.58348042474,"semimajor_km":6861.1822033747,"source":"CELESTRAK","updated_at":"2026-05-25T13:38:21.290483Z"}}}